Tracking 30995 objects as of 7-Jul-2025
HD Live streaming from Space Station
objects crossing your sky now

STARLINK 1047

Track STARLINK 1047 now!
10-day predictions
STARLINK 1047 is classified as:


NORAD ID: 44752
Int'l Code: 2019-074AR
Perigee: 494.4 km
Apogee: 498.1 km
Inclination: 53.1 °
Period: 94.4 minutes
Semi major axis: 6867 km
RCS: Unknown
Launch date: November 11, 2019
Source: United States (US)
Launch site: AIR FORCE EASTERN TEST RANGE (AFETR)
Your satellite tracking list
Your tracking list is empty




NASA's NSSDC Master Catalog

Two Line Element Set (TLE):
1 44752U 19074AR  25187.30324618  .00003774  00000-0  16006-3 0  9990
2 44752  53.0696 211.1439 0002739 125.9459 234.1793 15.25553206311648
Source of the keplerian elements: AFSPC